User: anonymous   Login
Location: Glencliff
(36.1226°N, 86.7183°W)
Time: 19:54:00
(UTC+00:00)
Language:

CZ-2D R/B - Orbit

View from above orbital plane
View from above orbital plane
View from above satellite
View from above satellite

Ground track
Ground track

The orbit data is extracted from the following two-line orbital elements,

1 37932U 11068C   19293.71050069 +.00000029 +00000-0 +32227-4 0  9993
2 37932 098.6305 229.6336 0038229 082.0423 324.7276 14.22015137410834
Epoch (UTC): 20 October 2019 17:03:07
Eccentricity: 0.0038229
inclination: 98.6305°
perigee height: 791 km
apogee height: 846 km
right ascension of ascending node: 229.6336°
argument of perigee: 82.0423°
revolutions per day: 14.22015137
mean anomaly at epoch: 324.7276°
orbit number at epoch: 41083

The dashed part of the orbit path shows where the satellite is in the earth's shadow,  

DLR